{"data":{"norad_id":68944,"intl_designator":"2026-098AB","name":"KUIPER-00446","alt_names":[],"object_type":"PAYLOAD","status":"ACTIVE","operator":null,"country":"US","launch_date":"2026-04-30","launch_site_code":"FRGUI","launch_vehicle":null,"mission":null,"orbit_class":"UNKNOWN","rcs_meters":null,"size_class":null,"mass_kg":null,"dimensions":null,"purposes":[],"wikipedia_slug":null,"has_3d_model":false,"image_url":null,"decayed_at":null,"tle_current":{"epoch":"2026-05-24T19:02:04.380000Z","epoch_age_seconds":86755,"freshness":"FRESH","line1":"1 68944U 26098AB  26144.79310625  .00007402  00000+0  23197-3 0  9993","line2":"2 68944  51.8714 180.4603 0006781  59.6185 300.5470 15.34092900  3754","mean_motion":15.340929,"eccentricity":0.0006781,"inclination_deg":51.8714,"raan_deg":180.4603,"arg_perigee_deg":59.6185,"mean_anomaly_deg":300.547,"bstar":0.00023197,"rev_number":375,"period_min":93.866544848751,"perigee_km":458.97676557259,"apogee_km":468.255551206,"semimajor_km":6841.7531583893,"source":"CELESTRAK","updated_at":"2026-05-25T13:38:08.797965Z"}}}